TimeEST,TemperatureF,Dew PointF,Humidity,Sea Level PressureIn,VisibilityMPH,Wind Direction,Wind SpeedMPH,Gust SpeedMPH,PrecipitationIn,Events,Conditions,WindDirDegrees,DateUTC
1:56 AM,41.9,-9999,N/A,30.05,5.0,ESE,3.5,-,N/A,,Haze,110,2013-01-13 06:56:00
2:22 AM,42.8,-9999,N/A,30.03,1.8,East,3.5,-,N/A,,Clear,90,2013-01-13 07:22:00
2:30 AM,41.0,-9999,N/A,30.03,3.0,ESE,4.6,-,N/A,,Clear,120,2013-01-13 07:30:00
2:37 AM,39.2,-9999,N/A,30.03,1.8,East,3.5,-,N/A,,Clear,100,2013-01-13 07:37:00
2:45 AM,39.2,-9999,N/A,30.04,1.2,ESE,3.5,-,N/A,,Clear,120,2013-01-13 07:45:00
2:56 AM,41.0,-9999,N/A,30.06,6.0,ESE,4.6,-,N/A,,Haze,110,2013-01-13 07:56:00
3:56 AM,43.9,-9999,N/A,30.01,10.0,ESE,6.9,-,N/A,,Scattered Clouds,110,2013-01-13 08:56:00
4:56 AM,43.9,-9999,N/A,29.97,10.0,SSE,12.7,-,N/A,,Overcast,150,2013-01-13 09:56:00
5:23 AM,44.6,-9999,N/A,29.96,10.0,SE,13.8,-,N/A,,Scattered Clouds,140,2013-01-13 10:23:00
5:32 AM,44.6,-9999,N/A,29.95,10.0,SE,12.7,-,N/A,,Mostly Cloudy,130,2013-01-13 10:32:00
5:56 AM,43.9,-9999,N/A,29.96,10.0,ESE,9.2,-,N/A,,Overcast,120,2013-01-13 10:56:00
6:21 AM,44.6,-9999,N/A,29.94,7.0,SSE,13.8,-,N/A,,Overcast,160,2013-01-13 11:21:00
6:56 AM,45.9,-9999,N/A,29.95,7.0,SSE,20.7,26.5,N/A,,Overcast,160,2013-01-13 11:56:00
7:56 AM,46.9,-9999,N/A,29.94,7.0,SSE,23.0,-,N/A,,Overcast,160,2013-01-13 12:56:00
8:56 AM,48.9,-9999,N/A,29.96,10.0,SSE,13.8,-,N/A,,Overcast,160,2013-01-13 13:56:00
10:56 AM,52.9,-9999,N/A,29.96,8.0,SSE,15.0,-,N/A,,Overcast,150,2013-01-13 15:56:00
11:56 AM,54.9,-9999,N/A,29.93,10.0,SSE,13.8,-,N/A,,Overcast,150,2013-01-13 16:56:00
12:56 PM,54.9,-9999,N/A,29.90,10.0,SSE,16.1,-,N/A,,Scattered Clouds,160,2013-01-13 17:56:00
1:56 PM,54.9,-9999,N/A,29.88,10.0,South,19.6,24.2,N/A,,Scattered Clouds,180,2013-01-13 18:56:00
2:56 PM,55.9,-9999,N/A,29.92,10.0,South,6.9,-,N/A,,Scattered Clouds,180,2013-01-13 19:56:00
3:56 PM,54.0,-9999,N/A,29.94,10.0,South,12.7,-,N/A,,Partly Cloudy,180,2013-01-13 20:56:00
4:56 PM,52.0,-9999,N/A,29.94,10.0,South,11.5,-,N/A,,Partly Cloudy,170,2013-01-13 21:56:00
5:56 PM,50.9,-9999,N/A,29.96,10.0,SSE,9.2,-,N/A,,Scattered Clouds,160,2013-01-13 22:56:00
6:56 PM,52.0,-9999,N/A,29.93,10.0,SSE,9.2,-,N/A,,Scattered Clouds,150,2013-01-13 23:56:00
7:56 PM,50.0,-9999,N/A,29.94,10.0,SE,8.1,-,N/A,,Mostly Cloudy,140,2013-01-14 00:56:00
8:56 PM,50.0,-9999,N/A,29.93,10.0,SSE,10.4,-,N/A,,Mostly Cloudy,160,2013-01-14 01:56:00
9:56 PM,50.0,-9999,N/A,29.91,10.0,South,12.7,-,N/A,,Mostly Cloudy,170,2013-01-14 02:56:00
10:56 PM,48.9,-9999,N/A,29.89,10.0,SSE,8.1,-,N/A,,Mostly Cloudy,160,2013-01-14 03:56:00
11:56 PM,48.9,-9999,N/A,29.89,10.0,SSE,9.2,-,N/A,,Overcast,160,2013-01-14 04:56:00